THORAD DELTA 1 DEB, 8172

Orbit data source: Space-Track

THORAD DELTA 1 DEB, 8172 is space debris in SSO originally from a launch on Fri, 15 Nov 1974 UTC launched from the Air Force Western Test Range (AFWTR). Debris objects in space refer to the collection of defunct objects orbiting the Earth. Examples of debris include non-operational satellites, rocket bodies, and fragments generated from explosions, collisions, or faulty payload assembly.

Loading next visibility...
Identifier
8172, 1974-089AN
Orbit
SSO
Country
Flag of USUS
Related business
Manufacturer
Unknown
Mission
Spacecraft
Bus & Motor
Unknown
Mass
Unknown
Launch date (UTC)
1974-11-15 (51 years ago)
Launch vehicle
Unknown
Launch site
Air Force Western Test Range (AFWTR)
Object type
Payload
Rocket body
Debris
Shape & HBR
Unknown shape, 0.5 m
Radar Cross Section
Medium (>0.1 m² and <1 m²)

Expand to show TLE details & history
Last TLE update: 13 hours ago

TLE from 13 hours ago
0 THORAD DELTA 1 DEB
1 08172U 74089AN  26044.67425252 -.00000019  00000-0  17290-3 0  9998
2 08172 101.9878  61.4265 0052898 327.7119 145.4804 12.54927683347322
Epoch: 2026-02-13T16:10Z
TLE epoch observation values (Epoch: 2026-02-13T16:10:55.417Z)
Latitude
63.8309°
Longitude
-119.54552°
Altitude
1,488.924 km
Speed
7.11 km/s
True Right ascension
17h 47m 34s
True Declination
63° 42' 26"
Sunlit
Object was in daylight at epoch
Visualization orbit readout
Latitude
Unknown
Longitude
Unknown
Altitude
Unknown
Speed
Unknown
Apparent Right ascension
Unknown
Apparent Declination
Unknown
Sunlit
N/A
Visualization observer readout
Local Sidereal Time
07:41:06
Azimuth
Unknown
Elevation
Unknown
Doppler factor
Unknown
Orbital elements
Apogee altitude
1,482.87 km
Perigee altitude
1,400.141 km
Semi-major axis
7,819.643 km
Eccentricity
0.00529
Inclination
101.9878°
RAAN
61.4265°
Arg. of periapsis
327.7119°
True anomaly
145.82204°
Mean anomaly
145.4804°
Eccentric anomaly
145.65141°
Mean motion
3.13879 °/min
Orbital period
114.69 mins
BSTAR
0.0001729
Loading maneuver chart data...
Computing Atmospheric mass density...

Documentation

Showing up to 5 results
|